| time (UTC) | temp C | wind direction | speed KPH | gust KPH | rain 1hr cm | rain 24hr cm | rain mn cm | humidity % | barometer mb |
| 20260504175516 | 21 | 270 | 14.5 | 25.7 | 0.00 | 0.00 | 0.00 | 39 | 1009.4 |
| 20260504174516 | 21 | 270 | 11.3 | 20.9 | 0.00 | 0.00 | 0.00 | 41 | 1009.5 |
| 20260504173516 | 21 | 270 | 11.3 | 25.7 | 0.00 | 0.00 | 0.00 | 37 | 1009.6 |
| 20260504172516 | 21 | 270 | 11.3 | 19.3 | 0.00 | 0.00 | 0.00 | 39 | 1009.7 |
| 20260504171516 | 20 | 270 | 12.9 | 22.5 | 0.00 | 0.00 | 0.00 | 37 | 1009.9 |
| 20260504170516 | 20 | 270 | 11.3 | 22.5 | 0.00 | 0.00 | 0.00 | 38 | 1010.1 |
| 20260504150516 | 18 | 270 | 11.3 | 19.3 | 0.00 | 0.00 | 0.00 | 42 | 1011.4 |
| 20260504140516 | 15 | 270 | 8.0 | 14.5 | 0.00 | 0.00 | 0.00 | 48 | 1011.9 |
| 20260504130515 | 12 | 68 | 1.6 | 6.4 | 0.00 | 0.00 | 0.00 | 59 | 1012.3 |
| 20260504110517 | 4 | 0.0 | 0.0 | 0.00 | 0.00 | 0.00 | 83 | 1012.4 | |
| 20260504100517 | 3 | 0.0 | 0.0 | 0.00 | 0.00 | 0.00 | 82 | 1012.3 | |
| 20260504081517 | 5 | 0.0 | 0.0 | 0.00 | 0.00 | 0.00 | 75 | 1012.2 | |
| 20260504080517 | 5 | 0.0 | 0.0 | 0.00 | 0.00 | 0.00 | 74 | 1012.2 | |
| 20260504050517 | 8 | 270 | 1.6 | 3.2 | 0.00 | 0.00 | 0.00 | 58 | 1012.0 |
| 20260504045517 | 8 | 248 | 1.6 | 3.2 | 0.00 | 0.00 | 0.00 | 57 | 1012.0 |
| 20260504044516 | 9 | 248 | 1.6 | 3.2 | 0.00 | 0.00 | 0.00 | 57 | 1012.0 |
| 20260504043516 | 9 | 270 | 1.6 | 4.8 | 0.00 | 0.00 | 0.00 | 57 | 1012.0 |
| 20260504042516 | 9 | 248 | 1.6 | 4.8 | 0.00 | 0.00 | 0.00 | 57 | 1012.0 |
| 20260504041516 | 9 | 248 | 1.6 | 3.2 | 0.00 | 0.00 | 0.00 | 57 | 1011.8 |
| 20260504040516 | 9 | 248 | 1.6 | 3.2 | 0.00 | 0.00 | 0.00 | 57 | 1011.6 |
| 20260504035517 | 9 | 248 | 1.6 | 3.2 | 0.00 | 0.00 | 0.00 | 57 | 1011.5 |
| 20260504034517 | 9 | 248 | 1.6 | 3.2 | 0.00 | 0.00 | 0.00 | 57 | 1011.4 |
| 20260504033517 | 9 | 248 | 1.6 | 3.2 | 0.00 | 0.00 | 0.00 | 57 | 1011.4 |
| 20260504032537 | 8 | 0.0 | 1.6 | 0.00 | 0.00 | 0.00 | 58 | 1011.3 | |
| 20260504031517 | 7 | 0.0 | 0.0 | 0.00 | 0.00 | 0.00 | 60 | 1011.2 | |
| 20260504030517 | 8 | 0.0 | 0.0 | 0.00 | 0.00 | 0.00 | 60 | 1011.1 | |
| 20260504025517 | 8 | 0.0 | 0.0 | 0.00 | 0.00 | 0.00 | 58 | 1011.2 | |
| 20260504024517 | 9 | 0.0 | 0.0 | 0.00 | 0.00 | 0.00 | 56 | 1011.2 | |
| 20260504023537 | 10 | 0.0 | 1.6 | 0.00 | 0.00 | 0.00 | 51 | 1011.3 | |
| 20260504022517 | 11 | 248 | 1.6 | 1.6 | 0.00 | 0.00 | 0.00 | 48 | 1011.4 |
| 20260504021517 | 11 | 0.0 | 1.6 | 0.00 | 0.00 | 0.00 | 48 | 1011.1 | |
| 20260504020517 | 11 | 248 | 1.6 | 3.2 | 0.00 | 0.00 | 0.00 | 48 | 1011.1 |
| 20260504015517 | 11 | 248 | 1.6 | 3.2 | 0.00 | 0.00 | 0.00 | 47 | 1011.2 |
| 20260504014517 | 11 | 0.0 | 1.6 | 0.00 | 0.00 | 0.00 | 46 | 1011.1 | |
| 20260504013517 | 11 | 248 | 1.6 | 3.2 | 0.00 | 0.00 | 0.00 | 46 | 1011.0 |
| 20260504012517 | 11 | 270 | 3.2 | 4.8 | 0.00 | 0.00 | 0.00 | 46 | 1010.9 |
| 20260504011517 | 11 | 270 | 1.6 | 4.8 | 0.00 | 0.00 | 0.00 | 46 | 1010.9 |
| 20260504010517 | 12 | 270 | 1.6 | 3.2 | 0.00 | 0.00 | 0.00 | 45 | 1010.8 |
| 20260504005537 | 12 | 270 | 1.6 | 4.8 | 0.00 | 0.00 | 0.00 | 43 | 1010.6 |
| 20260504004517 | 12 | 248 | 3.2 | 4.8 | 0.00 | 0.00 | 0.00 | 43 | 1010.6 |
| 20260504003517 | 13 | 270 | 3.2 | 4.8 | 0.00 | 0.00 | 0.00 | 42 | 1010.4 |
| 20260504002517 | 13 | 270 | 3.2 | 4.8 | 0.00 | 0.00 | 0.00 | 42 | 1010.3 |
| 20260504001517 | 13 | 270 | 3.2 | 6.4 | 0.00 | 0.00 | 0.00 | 40 | 1010.2 |
| 20260504000537 | 13 | 270 | 4.8 | 8.0 | 0.00 | 0.00 | 0.00 | 40 | 1010.1 |
| 20260503235516 | 14 | 270 | 4.8 | 8.0 | 0.00 | 0.00 | 0.00 | 39 | 1010.0 |
| 20260503234517 | 14 | 270 | 4.8 | 9.7 | 0.00 | 0.00 | 0.00 | 37 | 1009.8 |
| 20260503233517 | 15 | 270 | 4.8 | 8.0 | 0.00 | 0.00 | 0.00 | 37 | 1009.7 |
| 20260503232537 | 15 | 270 | 6.4 | 12.9 | 0.00 | 0.00 | 0.00 | 36 | 1009.6 |
| 20260503231517 | 15 | 270 | 9.7 | 16.1 | 0.00 | 0.00 | 0.00 | 35 | 1009.7 |
| 20260503230517 | 15 | 270 | 4.8 | 8.0 | 0.00 | 0.00 | 0.00 | 36 | 1009.6 |
| 20260503225517 | 15 | 270 | 6.4 | 14.5 | 0.00 | 0.00 | 0.00 | 35 | 1009.6 |
| 20260503224516 | 15 | 270 | 6.4 | 14.5 | 0.00 | 0.00 | 0.00 | 36 | 1009.5 |
| 20260503223517 | 15 | 270 | 6.4 | 12.9 | 0.00 | 0.00 | 0.00 | 36 | 1009.6 |
| 20260503222517 | 15 | 270 | 6.4 | 16.1 | 0.00 | 0.00 | 0.00 | 34 | 1009.6 |
| 20260503221516 | 16 | 270 | 11.3 | 22.5 | 0.00 | 0.00 | 0.00 | 33 | 1009.6 |
| 20260503220516 | 15 | 270 | 4.8 | 11.3 | 0.00 | 0.00 | 0.00 | 35 | 1009.6 |
| 20260503215516 | 15 | 270 | 11.3 | 17.7 | 0.00 | 0.00 | 0.00 | 33 | 1009.6 |
| 20260503214516 | 16 | 270 | 8.0 | 17.7 | 0.00 | 0.00 | 0.00 | 31 | 1009.4 |
| 20260503213516 | 16 | 270 | 11.3 | 27.4 | 0.00 | 0.00 | 0.00 | 32 | 1009.4 |
| 20260503212516 | 16 | 270 | 11.3 | 16.1 | 0.00 | 0.00 | 0.00 | 31 | 1009.4 |
| 20260503211516 | 16 | 270 | 4.8 | 12.9 | 0.00 | 0.00 | 0.00 | 32 | 1009.3 |
| 20260503210516 | 16 | 270 | 9.7 | 19.3 | 0.00 | 0.00 | 0.00 | 31 | 1009.4 |
| 20260503205516 | 16 | 270 | 12.9 | 22.5 | 0.00 | 0.00 | 0.00 | 34 | 1009.4 |
| 20260503204536 | 16 | 270 | 11.3 | 25.7 | 0.00 | 0.00 | 0.00 | 32 | 1009.4 |
| 20260503203516 | 16 | 270 | 11.3 | 25.7 | 0.00 | 0.00 | 0.00 | 32 | 1009.6 |
| 20260503202516 | 16 | 270 | 12.9 | 25.7 | 0.00 | 0.00 | 0.00 | 34 | 1009.5 |
| 20260503201516 | 16 | 270 | 8.0 | 19.3 | 0.00 | 0.00 | 0.00 | 33 | 1009.7 |
| 20260503200516 | 15 | 270 | 12.9 | 22.5 | 0.00 | 0.00 | 0.00 | 32 | 1009.8 |
| 20260503195516 | 15 | 270 | 12.9 | 22.5 | 0.00 | 0.00 | 0.00 | 33 | 1010.0 |
| 20260503194516 | 15 | 45 | 6.4 | 14.5 | 0.00 | 0.00 | 0.00 | 34 | 1010.0 |
| 20260503193516 | 15 | 270 | 12.9 | 25.7 | 0.00 | 0.00 | 0.00 | 34 | 1010.2 |
| 20260503192516 | 15 | 270 | 8.0 | 20.9 | 0.00 | 0.00 | 0.00 | 35 | 1010.3 |
| 20260503191516 | 15 | 270 | 11.3 | 27.4 | 0.00 | 0.00 | 0.00 | 34 | 1010.4 |
| 20260503190516 | 15 | 248 | 9.7 | 19.3 | 0.00 | 0.00 | 0.00 | 36 | 1010.4 |
| 20260503185516 | 15 | 270 | 11.3 | 27.4 | 0.00 | 0.00 | 0.00 | 37 | 1010.4 |
| 20260503184516 | 15 | 270 | 14.5 | 27.4 | 0.00 | 0.00 | 0.00 | 33 | 1010.6 |
| 20260503183516 | 14 | 270 | 8.0 | 20.9 | 0.00 | 0.00 | 0.00 | 36 | 1010.6 |
| 20260503182516 | 14 | 270 | 8.0 | 25.7 | 0.00 | 0.00 | 0.00 | 37 | 1010.8 |
| 20260503181516 | 13 | 270 | 6.4 | 14.5 | 0.00 | 0.00 | 0.00 | 37 | 1010.8 |
| 20260503180516 | 13 | 270 | 8.0 | 22.5 | 0.00 | 0.00 | 0.00 | 37 | 1010.9 |